FW5236 Weather Reports


time (UTC)temp
C
wind
direction
speed
KPH
gust
KPH
rain 1hr
cm
rain 24hr
cm
rain mn
cm
humidity
%
barometer
mb
20260510113030 8 242 3.2 8.0 0.00 0.00 0.00 65 1018.4
20260510111531 8 242 3.2 8.0 0.00 0.00 0.00 65 1018.6
20260510103106 8 270 0.0 1.6 0.00 0.00 0.00 63 1018.5
20260510094531 10 250 3.2 8.0 0.00 0.00 0.00 60 1018.5
20260510093034 10 225 4.8 8.0 0.00 0.00 0.00 59 1018.6
20260510091529 10 230 4.8 9.7 0.00 0.00 0.00 59 1018.9
20260510090033 10 238 4.8 8.0 0.00 0.00 0.00 58 1019.0
20260510084529 11 242 3.2 6.4 0.00 0.00 0.00 57 1019.1
20260510081529 11 239 3.2 6.4 0.00 0.00 0.00 56 1019.2
20260510080029 11 228 3.2 6.4 0.00 0.00 0.00 56 1019.2
20260510074534 11 230 3.2 4.8 0.00 0.00 0.00 55 1019.2
20260510073030 11 231 3.2 4.8 0.00 0.00 0.00 54 1019.2
20260510071532 12 234 3.2 6.4 0.00 0.00 0.00 54 1019.2
20260510070029 11 239 3.2 8.0 0.00 0.00 0.00 55 1019.1
20260510064603 11 236 3.2 8.0 0.00 0.00 0.00 56 1019.0
20260510063033 12 241 3.2 6.4 0.00 0.00 0.00 56 1019.0
20260510061529 12 243 3.2 6.4 0.00 0.00 0.00 55 1019.1
20260510060031 12 234 3.2 4.8 0.00 0.00 0.00 55 1019.0
20260510054605 12 247 1.6 4.8 0.00 0.00 0.00 55 1019.0
20260510053033 13 247 0.0 3.2 0.00 0.00 0.00 53 1018.9
20260510051529 13 242 1.6 4.8 0.00 0.00 0.00 49 1018.8
20260510050026 14 243 3.2 4.8 0.00 0.00 0.00 48 1018.8
20260510043029 15 216 1.6 6.4 0.00 0.00 0.00 44 1018.8
20260510041531 16 202 0.0 3.2 0.00 0.00 0.00 44 1018.6
20260510040030 16 190 0.0 6.4 0.00 0.00 0.00 45 1018.5
20260510033030 16 135 0.0 0.0 0.00 0.00 0.00 43 1018.4
20260510031603 17 135 0.0 0.0 0.00 0.00 0.00 40 1018.3
20260510030107 18 135 0.0 0.0 0.00 0.00 0.00 39 1018.2
20260510024533 20 135 0.0 0.0 0.00 0.00 0.00 36 1018.1
20260510023028 22 122 0.0 0.0 0.00 0.00 0.00 27 1018.0
20260510021529 26 112 0.0 3.2 0.00 0.00 0.00 25 1018.1
20260510020028 26 112 0.0 1.6 0.00 0.00 0.00 24 1018.1
20260510014532 27 112 0.0 3.2 0.00 0.00 0.00 22 1018.3
20260510013029 27 112 0.0 3.2 0.00 0.00 0.00 25 1018.4
20260510011532 27 112 0.0 3.2 0.00 0.00 0.00 25 1018.5
20260510010030 27 126 0.0 3.2 0.00 0.00 0.00 23 1018.5
20260510004530 28 153 0.0 3.2 0.00 0.00 0.00 23 1018.5
20260510003106 28 127 0.0 4.8 0.00 0.00 0.00 24 1018.6
20260510000106 30 136 0.0 4.8 0.00 0.00 0.00 23 1018.8
20260509234530 29 99 1.6 6.4 0.00 0.00 0.00 23 1019.0
20260509231531 28 105 0.0 4.8 0.00 0.00 0.00 24 1019.5
20260509230030 28 116 0.0 6.4 0.00 0.00 0.00 24 1019.7
20260509224531 28 96 0.0 6.4 0.00 0.00 0.00 25 1020.0
20260509220032 26 124 1.6 8.0 0.00 0.00 0.00 27 1020.6
20260509214532 27 128 1.6 6.4 0.00 0.00 0.00 27 1020.8
20260509211531 26 125 0.0 6.4 0.00 0.00 0.00 29 1021.3
20260509204528 26 87 0.0 4.8 0.00 0.00 0.00 33 1021.5
20260509203031 25 134 1.6 6.4 0.00 0.00 0.00 33 1021.7
20260509201530 25 95 1.6 9.7 0.00 0.00 0.00 34 1022.0
20260509200103 25 91 0.0 4.8 0.00 0.00 0.00 34 1022.2
20260509193031 24 153 0.0 8.0 0.00 0.00 0.00 36 1022.5
20260509191530 23 148 0.0 6.4 0.00 0.00 0.00 37 1022.9
20260509190107 23 129 0.0 4.8 0.00 0.00 0.00 38 1023.0
20260509184531 23 72 1.6 8.0 0.00 0.00 0.00 39 1023.1
20260509183031 22 79 0.0 4.8 0.00 0.00 0.00 41 1023.3
20260509181606 22 86 0.0 6.4 0.00 0.00 0.00 41 1023.3
20260509174616 21 97 0.0 4.8 0.00 0.00 0.00 43 1023.5
20260509173031 21 64 0.0 3.2 0.00 0.00 0.00 43 1023.6
20260509170029 20 90 0.0 4.8 0.00 0.00 0.00 46 1023.9
20260509164533 19 111 0.0 3.2 0.00 0.00 0.00 47 1024.0
20260509161530 18 112 0.0 3.2 0.00 0.00 0.00 51 1024.4
20260509160036 17 141 0.0 0.0 0.00 0.00 0.00 54 1024.3
20260509154607 15 173 0.0 1.6 0.00 0.00 0.00 60 1024.3
20260509151530 12 225 0.0 1.6 0.00 0.00 0.00 69 1024.4
20260509150152 10 225 0.0 3.2 0.00 0.00 0.00 73 1024.5
20260509144531 9 238 3.2 6.4 0.00 0.00 0.00 76 1024.4
20260509141532 7 240 3.2 8.0 0.00 0.00 0.00 81 1024.4
20260509140030 6 232 4.8 9.7 0.00 0.00 0.00 83 1024.3
20260509134531 6 236 3.2 6.4 0.00 0.00 0.00 85 1024.3
20260509133145 5 234 4.8 8.0 0.00 0.00 0.00 86 1024.1
20260509131603 5 232 3.2 8.0 0.00 0.00 0.00 86 1023.8
20260509130033 5 249 1.6 6.4 0.00 0.00 0.00 86 1023.6
20260509124603 5 225 0.0 1.6 0.00 0.00 0.00 85 1023.6
20260509123031 5 230 1.6 6.4 0.00 0.00 0.00 84 1023.7
20260509121531 5 240 3.2 6.4 0.00 0.00 0.00 83 1023.7
20260509120030 6 238 3.2 6.4 0.00 0.00 0.00 82 1023.7
20260509114646 6 250 1.6 4.8 0.00 0.00 0.00 82 1023.7